Houston, TX

9:39 PM CDT on September 19, 2017 (GMT -0500)
Hobby

Weather History for KHOU - March, 2014

Change the Weather History Date:

Wednesday, March 26, 2014

  Actual Average Record
Temperature  
Mean Temperature 55 °F 65 °F  
Max Temperature 64 °F 75 °F 94 °F (1928)
Min Temperature 46 °F 55 °F 30 °F (1955)
Degree Days  
Heating Degree Days 10 3  
Month to date heating degree days 208 128  
Since 1 July heating degree days 1688 1316  
Cooling Degree Days 0 3  
Month to date cooling degree days 21 55  
Year to date cooling degree days 55 93  
Growing Degree Days 9 (Base 50)    
Moisture  
Dew Point 48 °F    
Average Humidity 73    
Maximum Humidity 93    
Minimum Humidity 52    
Precipitation  
Precipitation 0.15 in 0.12 in 2.23 in (1951)
Month to date precipitation 2.41 2.88  
Year to date precipitation 5.76 9.46  
Sea Level Pressure  
Sea Level Pressure 30.16 in    
Wind  
Wind Speed 7 mph (SE)    
Max Wind Speed 28 mph    
Max Gust Speed 36 mph    
Visibility 10 miles    
Events Rain    
T = Trace of Precipitation, MM = Missing Value Source: NWS Daily Summary

Daily Weather History Graph

Daily Weather History Graph

Search for Another Location

Airport or City:

Trip Planner

Search our weather history database for the weather conditions in past years. The results will help you decide how hot, cold, wet, or windy it might be!

Date:

Astronomy

Mar. 26, 2014 Rise Set
Actual Time 7:17 AM CDT 7:36 PM CDT
Civil Twilight 6:53 AM CDT 8:00 PM CDT
Nautical Twilight 6:26 AM CDT 8:27 PM CDT
Astronomical Twilight 5:57 AM CDT 8:56 PM CDT
Moon 4:08 AM CDT (3/26) 3:33 PM CDT (3/26)
Length of Visible Light 13h 06m
Length of Day
12h 18m
Waning Crescent, 21% of the Moon is Illuminated
Mar 26
Waning Crescent
Mar 30
New
Apr 7
First Quarter
Apr 15
Full
Apr 22
Last Quarter

Hourly Weather History & Observations

Time (CDT) Temp. Dew Point Humidity Pressure Visibility Wind Dir Wind Speed Gust Speed Precip Events Conditions
12:53 AM 53.1 °F 37.0 °F 55% 30.23 in 10.0 mi Calm Calm - N/A   Scattered Clouds
1:53 AM 54.0 °F 37.0 °F 53% 30.22 in 10.0 mi East 4.6 mph - N/A   Scattered Clouds
2:53 AM 54.0 °F 37.9 °F 55% 30.22 in 10.0 mi Calm Calm - N/A   Scattered Clouds
3:53 AM 52.0 °F 42.1 °F 69% 30.25 in 10.0 mi SSW 4.6 mph - N/A   Overcast
4:53 AM 53.1 °F 42.1 °F 66% 30.22 in 10.0 mi ENE 3.5 mph - N/A   Mostly Cloudy
5:53 AM 54.0 °F 42.1 °F 64% 30.21 in 10.0 mi Calm Calm - N/A   Mostly Cloudy
6:53 AM 55.9 °F 43.0 °F 62% 30.21 in 10.0 mi ESE 5.8 mph - N/A   Overcast
7:53 AM 59.0 °F 45.0 °F 60% 30.19 in 10.0 mi East 8.1 mph - N/A   Overcast
8:53 AM 60.1 °F 46.0 °F 60% 30.22 in 10.0 mi ESE 9.2 mph 17.3 mph N/A   Overcast
9:53 AM 62.1 °F 45.0 °F 53% 30.25 in 10.0 mi ESE 12.7 mph 19.6 mph N/A   Overcast
10:53 AM 63.0 °F 46.0 °F 54% 30.23 in 10.0 mi SE 17.3 mph 26.5 mph N/A   Overcast
11:53 AM 66.0 °F 46.0 °F 48% 30.20 in 10.0 mi SE 16.1 mph 29.9 mph N/A   Overcast
12:53 PM 66.0 °F 46.9 °F 50% 30.20 in 10.0 mi ESE 18.4 mph 24.2 mph N/A   Overcast
1:53 PM 63.0 °F 48.0 °F 58% 30.21 in 10.0 mi SE 4.6 mph - 0.00 in Rain Light Rain
2:53 PM 57.9 °F 52.0 °F 81% 30.18 in 6.0 mi ESE 10.4 mph - 0.06 in Rain Rain
3:53 PM 57.9 °F 53.1 °F 84% 30.17 in 10.0 mi SE 6.9 mph - 0.09 in Rain Light Rain
4:53 PM 57.0 °F 54.0 °F 89% 30.10 in 9.0 mi ESE 13.8 mph - 0.10 in Rain Rain
5:53 PM 59.0 °F 54.0 °F 83% 30.08 in 10.0 mi SE 17.3 mph 27.6 mph 0.01 in   Mostly Cloudy
6:53 PM 59.0 °F 54.0 °F 83% 30.06 in 10.0 mi ESE 15.0 mph - N/A   Mostly Cloudy
7:53 PM 59.0 °F 53.1 °F 81% 30.07 in 10.0 mi SE 9.2 mph - N/A   Mostly Cloudy
8:53 PM 60.1 °F 54.0 °F 80% 30.07 in 10.0 mi SE 10.4 mph - N/A   Overcast
9:53 PM 61.0 °F 55.9 °F 83% 30.06 in 10.0 mi SE 9.2 mph 18.4 mph N/A   Overcast
10:53 PM 61.0 °F 55.9 °F 83% 30.06 in 10.0 mi SE 11.5 mph - N/A   Mostly Cloudy
11:53 PM 62.1 °F 57.0 °F 84% 30.04 in 10.0 mi SE 9.2 mph - N/A   Overcast